Regional Weather Roundup
Issued by NWS

Home | Current Version | Previous Version | Graphics & Text | Print | Product List | Glossary On
Versions: 1 2 3 4 5 6 7 8 9 10 11 12 13 14 15 16 17 18 19 20 21 22 23 24 25 26 27 28 29 30 31 32 33 34 35 36 37 38 39 40 41 42 43 44 45 46 47 48 49 50
000
ASUS43 KDMX 310807
RWRIA

WEATHER ROUNDUP FOR IOWA
NATIONAL WEATHER SERVICE DES MOINES IA
200 AM CST SAT JAN 31 2015

NOTE: "FAIR" INDICATES FEW OR NO CLOUDS BELOW 12,000 FEET WITH NO
SIGNIFICANT WEATHER AND/OR OBSTRUCTIONS TO VISIBILITY.

* - THESE STATIONS ARE NOT NWS STATIONS...THUS NOT UNDER NWS
QUALITY CONTROL.  THEY ALSO DO NOT REPORT WEATHER SUCH
AS PRECIPITATION OR FOG.

IAZ001>003-012>014-020>022-031>034-043>046-310900-
   NORTHWEST IOWA

CITY           SKY/WX    TMP DP  RH WIND       PRES   REMARKS
CARROLL *      CLEAR     32  25  74 SW16G22   30.18R WCI  21
CHEROKEE *     CLEAR     28  27  93 S5        30.15F WCI  23
DENISON *      CLEAR     28  27  93 S5        30.17S WCI  23
LE MARS *      CLEAR     28  27  93 S6        30.15S WCI  22
ORANGE CITY *  CLEAR     28  25  86 S6        30.13S WCI  22
SHELDON *      CLEAR     28  27  93 SW8       30.11F WCI  20
SIOUX CITY     PTCLDY    27  24  89 MISG      30.16F
SPENCER        CLEAR     29  23  78 SW5       30.14S WCI  24
STORM LAKE *   CLEAR     30  27  86 SW9       30.15F WCI  22
$$

IAZ055>058-069>071-079>083-090>094-310900-
   SOUTHWEST IOWA

CITY           SKY/WX    TMP DP  RH WIND       PRES   REMARKS
ATLANTIC *     CLEAR     32  25  74 S12       30.22S WCI  23
AUDUBON *      CLEAR     30  25  80 SW5       30.21R WCI  25
CLARINDA *     CLOUDY    30  23  74 CALM      30.27S
COUNCIL BLFS * PTCLDY    34  27  75 S10       30.20F WCI  26
CRESTON *      CLEAR     30  23  74 SW10G18   30.23S WCI  21
HARLAN  *      CLEAR     30  28  93 S7        30.24S WCI  23
LAMONI         MOCLDY    27  19  72 S10       30.25F WCI  17
RED OAK *      PTCLDY    30  23  74 S8        30.25S WCI  23
SHENANDOAH *   CLEAR     34  27  75 SW8       30.25F WCI  27
$$

IAZ047>049-059>061-072>074-084-310900-
   CENTRAL IOWA

CITY           SKY/WX    TMP DP  RH WIND       PRES   REMARKS
AMES           CLEAR     25  18  74 S7        30.21F WCI  17
ANKENY *       CLEAR     27  19  74 S5        30.23S WCI  21
CHARITON *     MOCLDY    28  21  74 S8        30.25F WCI  20
DES MOINES     PTCLDY    27  18  69 S8        30.23F WCI  19
GRINNELL*      PTCLDY    27  19  74 S8        30.23F WCI  18
KNOXVILLE *    CLEAR     28  19  69 S12       30.23F WCI  18
MARSHALLTOWN   CLEAR     28  18  66 S13       30.20F WCI  17
PELLA *        PTCLDY    28  19  69 S8        30.26F WCI  20
PERRY *          N/A     28  25  86 S10       30.20S WCI  19
$$

IAZ004>006-015-016-023>025-035-036-310900-
   NORTH CENTRAL IOWA

CITY           SKY/WX    TMP DP  RH WIND       PRES   REMARKS
ALGONA *       CLEAR     27  25  93 S8        30.15F WCI  18
CLARION *      CLEAR     25  23  93 S8        30.17F WCI  16
ESTHERVILLE    PTCLDY    28  23  81 SW9       30.12F WCI  19
FORT DODGE *   MOCLDY    27  21  80 S8        30.17F WCI  18
MASON CITY     CLEAR     25  20  81 SW9       30.16F WCI  15
FOREST CITY *  CLEAR     25  19  80 S5        30.15F WCI  19
IOWA FALLS *     N/A     27  19  74 S10       30.19F WCI  17
$$

IAZ007>011-017>019-026>030-037>042-050>054-066-310900-
   NORTHEAST IOWA

CITY           SKY/WX    TMP DP  RH WIND       PRES   REMARKS
CEDAR RAPIDS   PTCLDY    22  17  81 S7        30.25F WCI  13
CHARLES CITY * CLEAR     21  18  86 S10       30.17F WCI  10
CLINTON *      CLEAR     19  12  73 S8        30.31F WCI   9
DECORAH *      PTCLDY    25  16  68 S7G13     30.16F WCI  17
DUBUQUE        CLEAR     20  15  81 S14       30.23F WCI   7
MONTICELLO *   CLEAR     21  18  86 S6        30.25F WCI  14
OELWEIN *      CLEAR     19  16  86 S9        30.21F WCI   9
WATERLOO       CLEAR     23  17  78 S7        30.20F WCI  15
$$

IAZ064-065-067-068-078-310900-
   EAST CENTRAL IOWA

CITY           SKY/WX    TMP DP  RH WIND       PRES   REMARKS
DAVENPORT      PTCLDY    26  17  68 S12       30.29F WCI  16
IOWA CITY      PTCLDY    23  18  81 CALM      30.30F
MT. PLEASANT * MOCLDY    27  21  80 S10       30.30F WCI  17
MUSCATINE *    PTCLDY    27  21  80 S5        30.31F WCI  21
QUAD CITIES    CLOUDY    27  19  72 SW6       30.30F WCI  20
$$

IAZ062-063-075>077-085>089-095>099-310900-
   SOUTHEAST IOWA

CITY           SKY/WX    TMP DP  RH WIND       PRES   REMARKS
BURLINGTON     MOCLDY    27  21  78 S7        30.31F WCI  19
FAIRFIELD *    CLOUDY    28  19  69 S8        30.29F WCI  20
FORT MADISON * PTCLDY    27  21  80 SW9       30.32F WCI  17
KEOKUK *       CLEAR     27  21  80 S5        30.32S WCI  21
OSKALOOSA *      N/A     25  19  80 S7        30.27F WCI  17
CENTERVILLE *  MOCLDY    28  21  74 S8        30.28F WCI  20
OTTUMWA        MOCLDY    26  19  74 S7        30.27F WCI  18
WASHINGTON *   CLOUDY    27  23  86 SW7       30.29F WCI  19
$$

ABBREVIATIONS USED IN REMARKS
   TC - TEMPERATURES IN CELSIUS
  WCI - WIND CHILL INDEX
   HX - HEAT INDEX
  VSB - VISIBILITY
$$



USA.gov is the U.S. government's official web portal to all federal, state and local government web resources and services.